www.pogodaiklimat.ru
Время
(UTC), дата
18 4.07
21 4.07
00 5.07
03 5.07
06 5.07
09 5.07
12 5.07
15 5.07
18 5.07
21 5.07
00 6.07
03 6.07
06 6.07
09 6.07
12 6.07
15 6.07
18 6.07
21 6.07
00 7.07
03 7.07
06 7.07
09 7.07
12 7.07
15 7.07
18 7.07
21 7.07
00 8.07
03 8.07
06 8.07
09 8.07
12 8.07
15 8.07
18 8.07
21 8.07
00 9.07
03 9.07
06 9.07
09 9.07
12 9.07
15 9.07
18 9.07
21 9.07
00 10.07
03 10.07
06 10.07
09 10.07
12 10.07
15 10.07
18 10.07
21 10.07
00 11.07
03 11.07
06 11.07
09 11.07
12 11.07
15 11.07
Ветер
(напр.,м/с)
Видим. Явления Облачность Т
(С)
Тd
(С)
f
(%)
Тe
(С)
Тes
(С)
Комфортность P
(гПа)
Po
(гПа)
Тmin
(С)
Tmax
(С)
R
(мм)
R24
(мм)
S
(см)
З 3 40 км 3/0
[Ac trans]
+30.3 +17.6 47 +35 +35 очень
душно
1008.3 1002.7 +36.7
СЗ 4 40 км ясно +26.7 +17.5 57 +31 +31 душно 1008.3 1002.7
С 4 35 км ясно +23.2 +17.4 70 +29 +29 душно 1008.3 1002.6
С 5 35 км ясно +21.4 +18.2 82 +26 +26 душно 1008.4 1002.7
С 4 45 км 4/0
[Ci fib]
+26.2 +17.1 57 +30 +35 душно 1008.6 1002.9 +21.3
С 4 40 км 3/0
[Ci fib]
+31.2 +19.3 49 +37 +48 очень
душно
1008.6 1003.0
СЗ 5 40 км 5/3 1000 м
[Cb calv Ci fib]
+35.2 +17.8 36 +39 +44 очень
душно
1007.3 1001.8
СВ 6 50 км гроза без осадков 8/4 1000 м
[Cb calv Ci fib]
+29.6 +15.9 44 +33 +33 душно 1007.6 1002.0
СЗ 3 50 км {гроза} 8/3 1000 м
[Cb calv Ac trans]
+26.4 +16.0 53 +30 +30 душно 1008.1 1002.5 +35.6
С 5 50 км 8/0
[Ac trans Ci fib]
+25.3 +19.2 69 +30 +30 душно 1008.8 1003.1
С 5 50 км 4/0
[Ac trans]
+23.4 +20.5 84 +31 +31 очень
душно
1008.6 1002.9
С 5 35 км 3/0
[Ac trans]
+22.3 +19.6 85 +28 +28 душно 1008.3 1002.6
С 5 40 км 1/0
[Ac trans]
+26.2 +18.9 64 +31 +35 очень
душно
1007.9 1002.3 +22.1
СВ 6 35 км ясно +31.6 +19.3 48 +37 +44 очень
душно
1007.0 1001.5
С 4 30 км 4/3 1000 м
[Cu hum Ac trans]
+35.6 +17.0 33 +38 +45 очень
душно
1005.2 999.7
ЮВ 8 35 км гроза без осадков 9/4 600 м
[Cb calv Ac trans]
+30.6 +14.4 37 +32 +33 жарко 1004.6 999.0
СВ 5 50 км {гроза} 9/4 600 м
[Cb calv Ac trans]
+28.6 +17.0 49 +32 +32 душно 1004.4 998.8 +36.6
С 2 40 км 9/3 1000 м
[Cb calv Ac trans]
+26.2 +15.2 51 +29 +29 жарко 1004.6 999.0
С 5 50 км 8/0
[Ac trans Ci fib]
+23.5 +15.6 61 +27 +27 душно 1003.2 997.5
С 3 35 км 5/0
[Ac trans Ci fib]
+21.3 +17.1 77 +25 +25 комфорт 1003.0 997.3
С 4 40 км 3/0
[Ci fib]
+26.6 +18.5 61 +31 +37 душно 1002.6 997.0 +21.0
СЗ 3 50 км 3/0
[Ci fib]
+32.6 +13.7 32 +34 +48 очень
жарко
1002.3 996.8
СЗ 2 50 км 5/3 1000 м
[Cb calv Ac trans]
+35.0 +13.0 27 +35 +44 очень
жарко
1001.5 996.0
СЗ 2 35 км гроза, ливневой дождь 6/4 600 м
[Cb calv Ac trans]
+26.6 +22.2 77 +35 +37 очень
душно
1000.5 994.9
СЗ 4 45 км {гроза, ливн. дождь} 9/4 600 м
[Cb calv Ac trans]
+23.7 +19.3 76 +29 +29 душно 1002.4 996.7 +35.4 1
СЗ 10 50 км зарница 8/4 600 м
[Cb calv Ac trans]
+21.7 +18.2 80 +26 +26 душно 1004.6 998.9
СЗ 6 50 км в посл. час гроза 8/4 600 м
[Cb calv Ac trans]
+20.1 +18.2 89 +23 +23 комфорт 1005.1 999.4
СЗ 8 50 км 10/10 210 м
[Cb calv]
+18.2 +16.5 90 +18 +18 тепло 1006.7 1000.9
СЗ 8 50 км 10/10 450 м
[Sc]
+16.6 +13.2 80 +15 +15 по сезону 1008.5 1002.7 +15.6
СЗ 10 50 км 9/9 660 м
[Sc]
+18.7 +12.2 66 +18 +18 по сезону 1010.8 1005.0
С 9 50 км 9/9 1080 м
[Sc]
+21.1 +11.1 53 +23 +23 комфорт 1012.5 1006.7
СЗ 8 50 км 8/4 1000 м
[Sc Ac trans]
+23.1 +9.4 42 +25 +25 комфорт 1013.1 1007.3
СЗ 4 50 км 4/3 1000 м
[Sc Ac trans]
+20.4 +10.4 53 +22 +22 комфорт 1014.8 1009.0 +24.2
СЗ 2 50 км ясно +15.7 +10.4 71 +16 +16 тепло 1016.4 1010.5
СЗ 3 50 км ясно +13.5 +12.2 92 +12 +12 тепло 1017.3 1011.3
СЗ 4 50 км ясно +14.3 +10.9 80 +13 +13 тепло 1018.2 1012.2
С 3 50 км ясно +19.7 +11.3 58 +21 +28 комфорт 1018.9 1013.0 +12.8
СЗ 4 50 км 3/3 1000 м
[Cu hum]
+23.5 +6.5 33 +24 +32 комфорт 1018.9 1013.1
СЗ 4 50 км 3/3 1000 м
[Cu hum]
+26.0 +6.9 30 +26 +33 жарко 1018.8 1013.1
СЗ 3 50 км 3/3 1000 м
[Sc diur, vesp]
+26.5 +7.8 31 +26 +29 жарко 1018.0 1012.3
СВ 2 40 км ясно +23.2 +8.5 39 +24 +24 комфорт 1018.8 1013.0 +27.0
В 1 50 км ясно +18.2 +10.8 62 +20 +20 тепло 1019.8 1013.9
С 2 50 км ясно +16.9 +10.9 68 +17 +17 по сезону 1020.1 1014.2
В 1 30 км 4/0
[Ac trans]
+15.5 +9.0 65 +16 +17 холодно 1020.8 1014.8
Ю 3 50 км 8/0
[Ac trans]
+23.3 +11.3 47 +26 +29 жарко 1021.4 1015.6 +14.4
Ю 3 50 км 1/1 1000 м
[Cu hum]
+27.2 +9.2 32 +27 +41 жарко 1020.6 1014.9
ЮЗ 3 50 км 4/4 600 м
[Sc]
+28.4 +10.0 32 +29 +36 жарко 1019.5 1013.8
ЮЗ 4 50 км 3/3 600 м
[Sc]
+29.6 +8.8 27 +29 +31 жарко 1019.0 1013.3
ЮЗ 2 45 км 3/0
[Ac trans]
+24.8 +12.9 48 +27 +27 жарко 1019.2 1013.5 +30.5
СЗ 2 40 км ясно +20.9 +11.5 55 +24 +24 комфорт 1019.7 1013.9
СВ 3 35 км ясно +17.9 +11.9 68 +18 +18 по сезону 1020.0 1014.1
С 2 45 км ясно +16.9 +11.5 70 +17 +18 прохладно 1020.0 1014.1
В 4 45 км ясно +26.9 +10.5 36 +28 +33 жарко 1019.9 1014.2 +16.7
СВ 4 50 км 1/1 600 м
[Sc]
+30.3 +10.2 29 +30 +41 жарко 1018.7 1013.1
Ю 1 50 км 3/3 1000 м
[Sc]
+32.0 +10.9 27 +32 +44 жарко 1017.3 1011.7
СВ 1 50 км 4/3 1000 м
[Sc Ac trans]
+32.1 +10.9 27 +32 +35 жарко 1015.7 1010.1
Местоположение метеостанции Николаев (Николаевская область, Украина): широта 47.03 долгота 31.95 высота над уровнем моря 50 м.
В архиве по умолчанию представлена погода в Николаеве за последнюю неделю. Архивные данные за месяц целиком и за предыдущие месяцы, начиная с января 2011 года, Вы можете получить, выбрав интересующий диапазон дат из раскрывающегося списка и нажав кнопку "Найти!".
*Определитесь, кто Вы:
Внимание! Время в таблицах - всемирное. Для получения местного времени необходимо прибавить поправку, которая равна 2 ч.
Смотрите также архив погоды в соседних городах и на ближайших метеорологических станциях:
Партнеры нашего сайта:      
Пояснения к столбцам:
  • Ветер - указаны скорость ветра в м/с - средняя за 10 мин, порывы в срок и между сроками (в фигурных скобках) и направление, откуда дует ветер: С - северный,
  • СВ - северо-восточный, В - восточный, ЮВ - юго-восточный, Ю - южный, ЮЗ - юго-западный, З - западный, СЗ - северо-западный.
  • Видимость - горизонтальная дальность видимости в метрах или километрах. При видимости от 1 до 10 км при отсутствии осадков обычно наблюдается дымка, при ухудшении видимости до 1 км и менее - туман. В сухую погоду видимость может ухудшаться дымом, пылью или мглою.
  • Явления - указаны атмосферные явления, наблюдавшиеся в срок или в последний час перед сроком; фигурными скобками обозначены явления, наблюдавшиеся между сроками (за 1-3 часа до срока); квадратными скобками обозначены град или гололедные отложения с указанием их диаметра в мм.
  • Облачность - указаны через наклонную черту общая и нижняя облачность в баллах и высота нижней границы облаков в метрах; квадратными скобками обозначены формы облаков: Ci - перистые, Cs - перисто-слоистые, Cc - перисто-кучевые, Ac - высококучевые, As - высокослоистые, Sc - слоисто-кучевые, Ns - слоисто-дождевые, Cu - кучевые, Cb - кучево-дождевые. Подробнее классификацию облаков см. в Атласе облаков (PDF).
  • T - Температура воздуха - температура, измеренная на высоте 2 м над землей.
  • Td - Температура точки росы - температура, при понижении до которой содержащийся в воздухе водяной пар достигнет насыщения.
  • f - Относительная влажность воздуха - влажноcть воздуха, измеренная на высоте 2 м над землей.
  • Te - Эффективная температура - температура, которую ощущает одетый по сезону человек в тени. Характеристика душности погоды. При расчете учитывается влияние влажности воздуха и скорости ветра на теплоощущения человека.
  • Tes - Эффективная температура на солнце - температура, которую ощущает человек, с поправкой на солнечный нагрев. Характеристика знойности погоды. Зависит от высоты солнца над горизонтом, облачности и скорости ветра. Ночью, в пасмурную погоду, а также при ветре 12 м/с и более поправка равна нулю.
  • P - Атмосферное давление - приведенное к уровню моря атмосферное давление.
  • Po - Атмосферное давление - измеренное на уровне метеостанции атмосферное давление.
  • Tmin - Минимальная температура - минимум температуры воздуха на высоте 2 м над землей.
  • Tmax - Максимальная температура - максимум температуры воздуха на высоте 2 м над землей.
  • R - Количество осадков - Количество выпавших осадков за период времени, мм. При наведении курсора мыши на число - период времени, за который выпало указанное количество осадков.
  • R24 - Количество осадков - Количество выпавших осадков за 24 часа, мм.
  • S - Снежный покров - Высота снежного покрова, см. При наведении курсора мыши на число - состояние снежного покрова и степень покрытия местности в баллах.